COSMOS 1538

Satellite information

Favourite Embed

Satellite Type and Status

PAYLOADIN ORBIT

Key statistics

Satellite COSMOS 1538 at a glance.

Uptime

15111

Days in orbit

Revolutions

≈ 14.3

Per day

Orbit

LEO

Low Earth Orbit

Inclination

74.0

Latest

Satellite identification and parameters

Extended collection of information and parameters for COSMOS 1538.

Object identification

Identified? True

Debris? False

Object name: COSMOS 1538

International designator: 1984-019A

Object number (NORAD): 14759

Object ID (CCSDS): 14759

Country: COMMONWEALTH OF INDEPENDENT STATES (CIS)

Current information (Y/N): Y

RCS size: LARGE

Orbital parameters

Period: 100.391 minutes

Inclination: 74.0379 deg

SMA: 7155.246 km

Apoapsis: 791.237 km

Periapsis: 762.986 km

RAAN: 193.9069 deg

Eccentricy: 0.0019742

Argument of periapsis: 65.8269 deg

Mean anomaly: 294.4944 deg

Mean motion: 14.34385438 rev/day

Mean motion (dot): 0.00000101 rev/day2

B* drag term: 0.000045053 1/REarth

Two-line elements (TLE)

Creation date: July 5, 2025, 5:45 p.m.

Reference frame: TEME

Reference center: EARTH

Epoch: July 5, 2025, 1:21 p.m. UTC

TLE line 0: 0 COSMOS 1538

TLE line 1: 1 14759U 84019A 25186.55646805 .00000101 00000-0 45053-4 0 9992

TLE line 2: 2 14759 74.0379 193.9069 0019742 65.8269 294.4944 14.34385438163261

Live tracking on map

Real-time ground track for satellite COSMOS 1538.

In-orbit conjunctions

A list of the most updated potential collisions computed for object COSMOS 1538.

Target Orbit TCA Probability of collision Miss distance Type
ARIANE 1 DEB SSO 2025-04-11 20:07:46 0.00418575 78.0 (m) DEBRIS
CZ-6A DEB LEO 2025-01-10 00:37:37 0.0004023028 368.0 (m) DEBRIS
CZ-6A DEB LEO 2025-01-07 10:36:39 0.0001257787 247.0 (m) DEBRIS
DMSP 5D-2 F13 DEB SSO 2024-12-12 22:36:50 0.0001262299 798.0 (m) DEBRIS
FENGYUN 1C DEB SSO 2024-10-16 10:19:09 0.0001052634 785.0 (m) DEBRIS

Associated space launch

Military communications satellite

COSMOS 1538 was lifted into orbit during the mission ‘Kosmos-3M | Strela-2M 34’, on board a Kosmos-3M space rocket.

The launch took place on Feb. 21, 1984, 3:36 p.m. from 132/1 (132L).

For more information about the launch, click the button.

Launch to space Kosmos-3M | Strela-2M 34
Kosmos-3M | Strela-2M 34

Agency: N/A

Status: Launch Successful

Launch date: Feb. 21, 1984, 3:36 p.m. UTC

Rocket: Kosmos-3M

Launch pad: 132/1 (132L)

Location: Plesetsk Cosmodrome, Russian Federation

...

Latest news about this satellite

There are no fresh news available about this satellite. Check back as we update our databases every day.


Newsletter sign-up

Weekly statistics, charts and insights to help you stay on top of the space industry.